Location: Erdweis
(48.5167°N, 15.3500°E)
Time: 10:22:21
(UTC+00:00)

USA 234 - Visible Passes

Search period start: 17 January 2021 00:00
Search period end: 27 January 2021 00:00
Orbit: 1098 x 1110 km, 123.0° (Epoch: 09 January)

Date Brightness Start Highest point End Pass type
(mag) Time Alt. Az. Time Alt. Az. Time Alt. Az.
17 Jan 3.5 17:19:06 25° E 17:22:49 52° NNE 17:29:07 10° WNW visible
17 Jan 3.4 19:06:27 69° W 19:06:27 69° W 19:12:14 10° NW visible
17 Jan 5.7 20:53:49 13° WNW 20:53:49 13° WNW 20:54:39 10° WNW visible
18 Jan 3.8 16:34:38 12° ENE 16:40:24 44° N 16:46:32 10° WNW visible
18 Jan 3.2 18:21:59 61° ENE 18:22:55 70° NNE 18:29:27 10° NW visible
18 Jan 4.9 20:09:19 28° WNW 20:09:19 28° WNW 20:12:27 10° WNW visible
19 Jan 3.5 17:37:28 31° ENE 17:40:22 52° NNE 17:46:41 10° WNW visible
19 Jan 3.8 19:24:49 54° WNW 19:24:49 54° WNW 19:29:47 10° NW visible
19 Jan 5.9 21:12:10 10° WNW 21:12:10 10° WNW 21:12:12 10° WNW visible
20 Jan 3.8 16:52:58 16° ENE 16:57:57 44° N 17:04:04 10° WNW visible
20 Jan 3.2 18:40:19 69° NE 18:40:28 70° NNE 18:46:59 10° NW visible
20 Jan 5.2 20:27:40 23° WNW 20:27:40 23° WNW 20:30:00 10° WNW visible
21 Jan 3.9 16:09:29 10° ENE 16:15:34 43° N 16:21:41 10° WNW visible
21 Jan 3.5 17:55:47 38° ENE 17:57:55 52° NNE 18:04:14 10° NW visible
21 Jan 4.2 19:43:08 43° WNW 19:43:08 43° WNW 19:47:20 10° NW visible
22 Jan 3.8 17:11:15 20° ENE 17:15:30 44° N 17:21:38 10° WNW visible
22 Jan 3.3 18:58:36 66° N 18:58:36 66° N 19:04:33 10° NW visible
22 Jan 5.4 20:45:56 18° WNW 20:45:56 18° WNW 20:47:33 10° WNW visible
23 Jan 3.9 16:27:03 10° ENE 16:33:08 43° N 16:39:14 10° WNW visible
23 Jan 3.5 18:14:03 44° NE 18:15:28 52° NNE 18:21:47 10° NW visible
23 Jan 4.5 20:01:23 35° WNW 20:01:23 35° WNW 20:04:54 10° NW visible
24 Jan 3.8 17:29:29 24° ENE 17:33:03 44° N 17:39:11 10° WNW visible
24 Jan 3.6 19:16:50 57° NNW 19:16:50 57° NNW 19:22:06 10° NW visible
24 Jan 5.6 21:04:10 14° WNW 21:04:10 14° WNW 21:05:07 10° WNW visible
25 Jan 3.9 16:44:55 11° ENE 16:50:41 43° N 16:56:47 10° WNW visible
25 Jan 3.5 18:32:16 50° NE 18:33:02 52° NNE 18:39:21 10° NW visible
25 Jan 4.9 20:19:36 28° WNW 20:19:36 28° WNW 20:22:27 10° NW visible
26 Jan 3.8 17:47:41 28° ENE 17:50:36 44° N 17:56:44 10° WNW visible
26 Jan 3.9 19:35:02 48° NW 19:35:02 48° NW 19:39:39 10° NW visible
26 Jan 5.8 21:22:22 11° WNW 21:22:22 11° WNW 21:22:39 10° WNW visible
